Volver al catálogo

COSMOS 839 DEB

ActivoUNKNOWN
NORAD 36300·DEBRIS·🇷🇺 Russia

Lanzado Jul 8, 1976 desde Plesetsk Cosmodrome

Loading…

Próximos Pases (próximas 24 horas)

TLE

ActualizadoSource: Space-Track

Época: Sep 14, 2026, 02:31 UTC

1 36300U 76067BZ  26257.10550708  .00000080  00000-0  48567-3 0  9997
2 36300  65.6814 144.5176 0679970   4.2855 141.9761 12.36225714771955

Sigue COSMOS 839 DEB en tiempo real con AllMySat

Download on the App Store